Regional Weather Roundup
Issued by NWS

Home | Current Version | Previous Version | Graphics & Text | Print | Product List | Glossary Off
Versions: 1 2 3 4 5 6 7 8 9 10 11 12 13 14 15 16 17 18 19 20 21 22 23 24 25 26 27 28 29 30 31 32 33 34 35 36 37 38 39 40 41 42 43 44 45 46 47 48 49 50

828
ASUS43 KTOP 261808
RWRKS

WEATHER ROUNDUP FOR KANSAS
NATIONAL WEATHER SERVICE GOODLAND KS
100 PM CDT TUE SEP 26 2017

NOTE:  "FAIR" INDICATES FEW OR NO CLOUDS BELOW 12,000 FEET WITH NO
SIGNIFICANT WEATHER AND/OR OBSTRUCTIONS TO VISIBILITY.

KSZ001>006-013>018-027>032-041>047-261900-
NORTHWEST KANSAS

CITY           SKY/WX    TMP DP  RH WIND       PRES   REMARKS
GOODLAND       CLOUDY    56  46  69 N5        30.20S
6HR MIN TEMP:  45; 6HR MAX TEMP:  57;

HAYS           CLOUDY    55  48  77 N13       30.19F
HILL CITY      CLOUDY    55  48  77 N12       30.20F
6HR MIN TEMP:  49; 6HR MAX TEMP:  55;

RUSSELL        CLOUDY    56  49  77 N10       30.17F
6HR MIN TEMP:  51; 6HR MAX TEMP:  57;

$$

KSZ061>065-074>080-084>089-261900-
SOUTHWEST KANSAS

CITY           SKY/WX    TMP DP  RH WIND       PRES   REMARKS
DODGE CITY     CLOUDY    56  50  80 N15       30.18F
6HR MIN TEMP:  50; 6HR MAX TEMP:  56;

ELKHART          N/A     55  51  86 N12         N/A
GARDEN CITY    CLOUDY    53  47  79 N13       30.19F
6HR MIN TEMP:  48; 6HR MAX TEMP:  54;

GREAT BEND     CLOUDY    56  51  84 N15       30.18R
LIBERAL        CLOUDY    56  50  80 N15       30.19F
PRATT          CLOUDY    58  50  76 N13       30.15F
6HR MIN TEMP:  51; 6HR MAX TEMP:  58;

$$

KSZ066>073-081>083-090>101-261900-
SOUTHEAST KANSAS

CITY           SKY/WX    TMP DP  RH WIND       PRES   REMARKS
CHANUTE        LGT RAIN  69  66  90 NW8       30.07S
6HR MIN TEMP:  67; 6HR MAX TEMP:  71; 6HR PCP:  0.01;

COFFEYVILLE    RAIN      69  68  96 N6        30.06S FOG
6HR MIN TEMP:  67; 6HR MAX TEMP:  71; 6HR PCP:  0.16;

HUTCHINSON     CLOUDY    58  56  93 N7        30.15R
6HR MIN TEMP:  54; 6HR MAX TEMP:  59;

MEDICINE LODGE   N/A     59  51  75 NE13      30.14S
NEWTON         CLOUDY    57  54  89 N10       30.14R
PARSONS        LGT RAIN  69  67  93 N8        30.08R
6HR MIN TEMP:  67; 6HR MAX TEMP:  70; 6HR PCP:  0.14;

WICHITA INTL   LGT RAIN  58  56  93 N12       30.12S
6HR MIN TEMP:  57; 6HR MAX TEMP:  60; 6HR PCP:  0.03;

WICHITA JABRA  LGT RAIN  59  57  93 N10       30.12R
6HR MIN TEMP:  57; 6HR MAX TEMP:  61; 6HR PCP: TRACE;

WICHITA MCCONL LGT RAIN  59  55  87 N10       30.12R
WINFIELD       RAIN      61  60  97 N10       30.12R FOG
6HR MIN TEMP:  61; 6HR MAX TEMP:  64; 6HR PCP:  0.10;

$$

KSZ007>012-019>026-033>040-048>060-102>105-261900-
NORTHEAST KANSAS

CITY           SKY/WX    TMP DP  RH WIND       PRES   REMARKS
CONCORDIA      CLOUDY    57  52  83 NW13      30.16F
6HR MIN TEMP:  52; 6HR MAX TEMP:  57;

EMPORIA        CLOUDY    63  57  81 N7        30.11S
6HR MIN TEMP:  60; 6HR MAX TEMP:  64;

LAWRENCE       CLOUDY    66  61  84 NW10      30.09R
6HR MIN TEMP:  63; 6HR MAX TEMP:  67; 6HR PCP:  0.03;

MANHATTAN      CLOUDY    61  54  77 N6        30.13F
6HR MIN TEMP:  57; 6HR MAX TEMP:  61;

MARYSVILLE     CLOUDY    59  54  82 NW9       30.14S
OLATHE IND     CLOUDY    67  63  87 NW9       30.08S
6HR MIN TEMP:  65; 6HR MAX TEMP:  70; 6HR PCP: TRACE;

OLATHE EXE     CLOUDY    66  64  93 N10       30.08R
6HR MIN TEMP:  64; 6HR MAX TEMP:  70; 6HR PCP:  0.09;

SALINA         CLOUDY    60  53  77 N16       30.14F
6HR MIN TEMP:  55; 6HR MAX TEMP:  61; 6HR PCP:  0.01;

TOPEKA BILLARD CLOUDY    65  60  84 NW10      30.10R
6HR MIN TEMP:  62; 6HR MAX TEMP:  66; 6HR PCP: TRACE;

TOPEKA FORBES  CLOUDY    66  60  81 N8        30.09F
6HR MIN TEMP:  62; 6HR MAX TEMP:  66;

$$




USA.gov is the U.S. government's official web portal to all federal, state and local government web resources and services.